Location: ???????
(55.7027°N, 37.3832°E)
Time: 21:35:01
(UTC+00:00)

Terra - Pass Details

Date: 14 April 2026
Orbit: 688 x 691 km, 97.9° (Epoch: 16 May)

Event Time Altitude Azimuth Distance (km) Brightness Sun altitude
Exits shadow 17:36:01 - 164° (SSE) 2,829 4.5 -8.7°
Reaches altitude 10° 17:37:42 10° 165° (SSE) 2,140 3.9 -8.9°
Maximum altitude 17:42:24 85° 253° (WSW) 700 1.9 -9.4°
Drops below altitude 10° 17:47:08 10° 344° (NNW) 2,155 5.1 -10.0°
Sets 17:49:24 0° 345° (NNW) 3,075 6.0 -10.3°
